Wind_Speed
7 8 8 7 7 7 7 8 9 10 9 9 8 8 9 9 9 9 9 9 9 9 10 10 10 10 10 10 10 11 11 11 11 11 11 11 11 11 11 11 11 11 11 11
8 9 9 9 9 9 9 9 10 10 10 10 10 10 10 10 10 10 11 11 11 11 11 11 11 11 11 11 11 11 12 12 12 12 12 12 12 12 11 11 12 12 12 11
9 9 9 10 10 10 10 11 11 11 10 11 11 11 11 11 11 12 12 12 12 12 12 12 13 13 13 13 13 13 13 13 13 13 12 12 12 12 12 12 12 12 12 12
9 9 10 10 11 11 11 12 11 11 11 12 12 12 11 13 13 13 12 13 13 14 13 13 14 14 14 14 14 14 13 13 13 13 13 13 13 13 13 13 12 12 12 12
9 10 10 10 11 11 11 11 10 11 11 12 12 13 13 14 15 14 13 14 14 15 15 15 15 16 16 16 15 15 15 14 14 14 14 14 14 14 13 13 13 12 12 12
10 10 11 11 11 11 10 10 11 11 11 12 12 13 14 15 16 15 14 15 15 16 16 17 17 17 17 17 17 16 16 16 16 16 15 15 15 15 14 14 14 13 13 13
11 11 11 11 12 11 11 11 11 11 11 12 13 16 17 17 17 17 17 17 17 17 18 18 18 18 18 18 18 18 17 17 17 17 17 17 17 16 16 15 15 15 14 14
12 13 13 12 13 13 13 13 12 12 12 13 14 17 17 17 18 19 19 19 19 19 19 19 19 19 19 19 19 18 19 18 18 18 18 18 18 18 17 17 17 16 16 16
13 14 14 14 14 14 14 14 14 14 14 14 16 18 19 19 20 20 20 20 20 20 20 20 20 20 20 19 19 19 19 19 19 19 19 20 19 19 19 19 18 18 18 17
14 14 14 15 15 15 15 15 15 15 16 16 16 18 21 22 20 21 21 21 21 21 21 21 22 22 21 21 20 20 20 20 20 20 21 21 21 21 21 21 20 19 19 18
16 16 15 17 16 15 16 16 17 17 18 18 19 21 22 23 22 23 23 23 23 23 22 22 23 22 22 22 22 21 21 21 21 21 21 21 21 22 22 21 21 21 20 20
17 17 17 18 18 18 18 18 19 19 20 21 23 24 23 24 24 24 25 24 24 24 24 23 23 23 23 23 23 22 22 22 21 21 21 21 22 22 22 22 22 22 22 21
18 18 18 19 19 20 20 20 21 22 22 23 23 24 24 25 25 26 26 25 25 25 24 24 23 23 23 23 23 23 23 23 22 22 22 22 22 22 22 23 23 23 23 22
19 19 19 20 20 21 22 23 23 23 23 24 23 24 26 26 26 26 26 26 26 25 25 24 24 24 23 23 23 23 23 23 23 22 22 22 22 22 22 22 22 22 22 22
21 21 22 22 21 21 22 23 24 25 25 25 25 25 26 27 27 27 27 26 26 26 26 25 24 24 24 23 23 23 23 23 23 23 23 23 22 22 22 22 21 21 20 21
22 22 23 22 23 23 22 22 23 25 26 26 26 25 25 26 27 27 27 27 26 26 26 25 25 25 24 24 24 24 23 23 23 23 23 23 23 22 22 21 21 20 20 21
22 23 23 23 23 25 25 24 24 24 25 26 25 25 25 25 27 27 26 26 26 26 25 25 25 25 25 24 24 24 23 23 24 24 24 23 23 23 22 21 21 21 21 21
22 24 25 25 25 26 24 24 24 24 24 25 25 26 25 26 27 27 26 26 25 24 24 24 24 25 25 25 25 24 24 24 24 24 24 24 23 23 22 22 22 22 22 22
23 24 25 25 26 26 25 25 25 26 25 25 25 25 26 26 27 27 26 25 24 24 25 24 25 25 25 25 26 25 24 25 24 24 24 24 24 23 23 23 23 24 24 23
24 25 25 25 27 27 26 26 26 27 28 26 26 26 27 27 27 27 26 25 25 25 25 25 25 25 26 26 26 26 25 25 25 24 24 24 24 23 24 24 24 24 24 24
25 26 26 26 28 28 27 27 27 28 29 28 27 27 28 28 28 27 26 26 25 26 26 26 26 26 26 26 26 26 26 26 25 25 24 24 24 24 24 23 24 24 25 25
26 26 26 27 28 28 28 27 27 29 29 29 28 27 27 27 27 27 27 26 26 26 26 26 26 26 25 26 26 26 26 26 26 26 26 25 25 25 24 24 24 24 25 25
26 26 27 27 28 28 27 27 28 28 29 30 30 28 27 27 27 27 27 26 26 26 27 27 27 26 26 27 26 26 26 26 26 26 26 25 24 24 24 24 25 25 25 25
27 28 28 28 28 30 30 29 29 28 29 30 29 27 27 27 27 28 28 27 27 26 26 27 27 27 27 27 27 26 26 26 25 25 24 23 23 24 25 26 26 26 26 26
28 29 29 29 29 30 31 31 30 30 30 30 29 28 28 28 28 28 28 28 27 27 28 27 27 27 28 28 28 27 27 26 25 24 23 23 23 24 25 26 26 27 27 27
28 30 31 31 30 31 32 33 32 31 30 30 29 29 29 29 29 29 28 28 28 28 28 28 28 28 28 27 27 28 27 26 25 24 24 24 24 25 26 26 27 27 27 27
Wind_Direction
250 251 254 260 261 259 261 268 274 280 283 285 289 289 288 287 289 294 294 293 295 296 296 298 299 301 302 302 304 301 301 304 306 306 304 302 300 300 301 300 298 296 296 297
255 256 258 259 257 257 259 266 270 273 276 282 285 284 286 287 290 293 295 295 292 291 291 293 294 295 298 300 301 300 301 302 302 304 303 302 300 298 299 300 299 297 296 297
254 257 258 256 257 259 263 268 272 274 275 279 282 282 284 285 287 288 290 292 292 290 290 289 290 293 295 297 297 296 296 297 298 299 299 300 298 296 295 297 297 296 295 294
256 257 258 258 261 263 264 267 272 275 277 280 283 282 281 284 286 287 287 288 290 290 292 292 291 291 293 294 294 294 293 293 294 295 297 299 298 294 293 294 294 295 294 294
256 256 262 263 265 268 268 271 271 274 275 275 279 283 283 283 286 289 289 288 289 290 289 290 290 290 289 290 291 292 291 290 290 291 292 293 294 293 293 291 291 293 292 291
259 260 264 267 268 268 268 269 273 276 276 276 281 281 281 284 288 293 291 288 287 289 290 290 290 290 289 288 288 288 288 288 288 288 288 288 289 290 289 289 287 287 287 288
260 259 262 265 266 266 267 267 270 274 279 282 283 283 283 286 288 291 289 287 288 288 289 289 289 289 288 287 285 286 286 287 285 285 285 285 285 286 287 287 286 285 285 285
265 263 265 266 268 269 267 264 265 267 265 271 276 278 285 286 285 286 285 285 286 287 287 287 287 289 288 286 284 284 285 285 284 283 282 283 284 285 285 285 284 284 283 283
258 264 269 269 269 270 268 265 264 264 263 265 269 275 283 284 286 287 286 285 285 286 285 286 286 286 287 286 285 284 283 283 283 283 283 283 283 284 283 283 283 282 282 280
260 265 268 270 270 269 269 267 262 262 265 263 265 272 278 282 285 287 287 287 287 286 286 286 287 286 284 283 283 283 283 283 283 284 284 283 282 282 283 281 280 280 280 277
263 265 268 271 273 272 271 267 264 265 268 267 267 268 275 281 285 286 286 288 288 286 286 286 286 285 283 282 282 283 283 283 284 284 285 284 283 282 280 280 277 277 278 276
264 265 267 271 274 274 273 271 270 270 270 270 272 274 278 280 281 283 285 286 286 285 285 284 285 283 283 282 282 283 283 284 284 283 283 283 283 283 280 279 277 275 275 276
264 265 268 269 273 275 274 273 272 271 271 272 274 277 279 279 280 283 286 288 287 285 285 284 284 283 282 281 281 281 282 282 282 283 283 282 282 282 281 279 277 275 275 275
265 263 265 268 273 278 279 277 276 274 273 274 276 277 279 281 282 284 285 286 286 285 285 284 283 282 281 281 281 281 282 282 281 281 281 282 282 281 281 281 279 277 277 276
267 267 267 268 271 275 275 276 276 275 275 276 277 277 279 281 282 285 286 285 285 284 284 283 282 280 280 281 280 281 283 282 281 281 281 282 281 281 282 282 281 280 279 278
269 270 271 271 271 273 276 274 275 277 277 276 277 278 279 281 281 282 285 285 285 284 284 281 281 282 282 281 280 281 281 282 282 281 281 281 280 280 281 282 281 280 279 278
271 271 272 273 274 275 277 280 281 281 281 280 280 282 281 282 283 283 285 286 286 286 285 283 280 281 281 281 280 280 280 281 282 281 280 279 278 278 279 280 280 279 279 279
272 273 274 275 276 276 280 280 280 280 280 280 281 282 282 283 284 284 284 284 285 285 285 284 281 279 279 279 279 279 279 281 281 280 279 278 277 275 274 275 277 279 278 277
269 272 274 277 277 278 278 279 280 281 283 281 281 281 281 282 282 283 284 285 286 285 284 283 282 280 278 277 276 276 277 279 280 279 278 277 276 274 273 273 274 275 276 276
269 271 274 276 277 278 281 281 282 282 281 282 282 282 282 283 283 284 285 284 284 284 284 284 283 282 280 278 277 276 276 277 278 278 278 277 274 274 273 273 273 274 274 277
272 274 275 276 277 279 281 281 282 280 283 283 282 282 283 283 283 284 283 283 284 284 284 283 282 282 282 281 279 277 276 276 276 275 275 275 275 273 273 274 274 273 273 274
273 274 276 277 277 279 281 283 282 282 283 283 283 282 282 282 283 283 282 282 283 283 283 283 283 283 283 282 280 279 278 276 276 275 274 274 273 271 271 273 273 273 273 274
271 274 275 276 278 280 282 283 284 283 283 283 283 282 282 282 282 282 281 281 281 281 281 281 282 282 282 281 280 279 278 277 277 275 275 275 271 269 270 272 274 274 274 275
273 272 272 274 276 277 280 280 281 282 282 283 283 281 282 282 283 283 283 282 280 281 280 280 281 281 281 280 280 279 279 279 277 275 273 271 271 272 272 273 274 275 274 274
273 273 272 274 274 275 275 278 280 281 281 282 282 281 280 281 282 284 284 283 281 282 281 280 281 281 280 279 280 279 279 278 274 271 268 272 274 275 275 274 274 274 273 273
273 273 273 273 273 274 275 277 278 279 281 281 280 279 280 281 283 284 283 282 282 281 281 280 280 279 279 279 278 278 277 274 270 268 270 273 275 276 277 275 275 275 274 274
Height
5842 5843 5843 5843 5844 5844 5844 5845 5845 5844 5844 5844 5844 5843 5843 5843 5843 5843 5842 5841 5841 5841 5841 5840 5840 5840 5839 5839 5838 5837 5837 5836 5836 5835 5834 5834 5833 5832 5831 5831 5830 5829 5829 5828
5840 5840 5841 5841 5842 5842 5843 5843 5843 5842 5842 5842 5842 5842 5842 5841 5841 5841 5840 5840 5839 5839 5839 5838 5838 5838 5837 5837 5836 5835 5835 5834 5834 5833 5832 5832 5831 5830 5830 5829 5828 5828 5827 5826
5837 5839 5839 5839 5840 5840 5840 5841 5841 5840 5840 5840 5840 5840 5839 5839 5839 5839 5838 5838 5837 5836 5836 5836 5836 5835 5835 5834 5834 5833 5832 5832 5831 5831 5830 5829 5828 5828 5827 5827 5826 5825 5825 5824
5835 5836 5837 5837 5838 5838 5838 5838 5838 5838 5838 5838 5838 5838 5837 5836 5837 5836 5836 5835 5835 5834 5834 5833 5833 5832 5832 5831 5831 5830 5830 5829 5829 5828 5827 5827 5826 5825 5825 5824 5823 5823 5822 5821
5833 5834 5834 5835 5835 5835 5835 5835 5835 5835 5835 5835 5835 5835 5835 5833 5833 5833 5833 5833 5832 5831 5831 5830 5830 5829 5829 5828 5828 5827 5826 5826 5826 5825 5825 5824 5823 5822 5822 5821 5821 5820 5820 5819
5831 5831 5832 5832 5832 5833 5833 5833 5833 5832 5832 5833 5833 5832 5832 5830 5830 5830 5830 5829 5829 5828 5827 5827 5826 5826 5825 5825 5824 5824 5823 5823 5822 5822 5821 5821 5820 5819 5819 5818 5818 5817 5817 5816
5828 5829 5829 5829 5829 5830 5830 5831 5831 5830 5829 5830 5830 5829 5829 5828 5827 5827 5826 5825 5825 5824 5824 5823 5822 5822 5821 5820 5820 5819 5819 5819 5818 5818 5817 5817 5816 5816 5815 5815 5815 5814 5814 5813
5826 5826 5826 5826 5827 5827 5827 5827 5828 5828 5828 5827 5827 5826 5826 5824 5824 5823 5822 5821 5821 5820 5819 5819 5818 5817 5817 5816 5815 5815 5815 5814 5814 5813 5813 5813 5812 5812 5811 5811 5811 5811 5810 5810
5823 5823 5823 5823 5823 5824 5823 5823 5824 5824 5824 5824 5824 5823 5822 5820 5819 5819 5818 5817 5816 5816 5815 5814 5814 5813 5812 5811 5811 5810 5810 5810 5809 5809 5808 5808 5808 5807 5807 5807 5806 5806 5806 5806
5819 5820 5820 5820 5820 5820 5820 5820 5820 5820 5820 5820 5820 5819 5817 5815 5814 5814 5813 5812 5812 5811 5810 5809 5808 5808 5807 5807 5806 5805 5805 5804 5804 5804 5803 5803 5802 5802 5802 5801 5802 5801 5801 5801
5815 5816 5816 5816 5815 5816 5816 5816 5815 5815 5815 5815 5814 5815 5812 5811 5810 5809 5808 5807 5806 5805 5804 5804 5803 5802 5802 5801 5801 5800 5800 5799 5799 5798 5797 5797 5797 5796 5796 5796 5796 5796 5795 5795
5811 5811 5811 5811 5811 5811 5811 5811 5811 5811 5810 5810 5809 5811 5808 5806 5805 5804 5803 5802 5801 5800 5799 5798 5797 5796 5796 5796 5795 5794 5794 5793 5793 5792 5792 5791 5791 5790 5790 5790 5790 5790 5790 5790
5807 5807 5807 5807 5808 5807 5806 5806 5806 5805 5805 5804 5804 5805 5802 5801 5799 5798 5797 5796 5795 5794 5793 5792 5791 5790 5790 5789 5789 5788 5788 5787 5786 5786 5785 5785 5785 5784 5784 5784 5783 5784 5783 5783
5802 5802 5803 5803 5802 5801 5801 5800 5800 5799 5798 5798 5798 5797 5796 5795 5793 5792 5791 5790 5789 5788 5787 5786 5785 5784 5784 5783 5782 5782 5781 5781 5780 5780 5779 5779 5778 5778 5778 5777 5777 5777 5777 5777
5796 5797 5797 5797 5796 5796 5795 5795 5794 5793 5792 5792 5792 5791 5790 5788 5787 5786 5785 5783 5782 5781 5780 5779 5779 5778 5777 5777 5776 5775 5775 5774 5774 5773 5773 5773 5772 5772 5772 5771 5771 5771 5771 5771
5791 5791 5791 5791 5790 5789 5789 5788 5788 5787 5786 5785 5784 5784 5783 5781 5780 5778 5777 5777 5776 5775 5773 5773 5772 5771 5771 5770 5769 5769 5768 5768 5767 5767 5766 5766 5766 5766 5766 5766 5765 5766 5766 5765
5785 5785 5785 5784 5784 5783 5783 5783 5781 5781 5779 5779 5778 5778 5776 5775 5773 5772 5771 5770 5769 5768 5767 5766 5765 5764 5764 5763 5763 5762 5762 5761 5761 5760 5760 5760 5760 5760 5760 5760 5759 5760 5760 5759
5779 5778 5778 5778 5778 5776 5778 5776 5775 5774 5773 5772 5771 5770 5769 5768 5766 5765 5764 5763 5762 5761 5760 5759 5758 5757 5757 5756 5756 5755 5755 5754 5754 5753 5753 5753 5753 5753 5753 5753 5753 5753 5754 5753
5773 5772 5771 5771 5770 5770 5771 5770 5768 5767 5766 5765 5764 5763 5762 5760 5759 5757 5756 5756 5755 5754 5753 5752 5751 5750 5750 5749 5748 5747 5747 5747 5747 5746 5746 5746 5746 5746 5747 5746 5747 5747 5747 5747
5766 5766 5766 5764 5762 5763 5765 5764 5762 5761 5759 5758 5757 5756 5754 5753 5752 5751 5750 5749 5748 5747 5746 5745 5744 5743 5742 5741 5741 5740 5740 5740 5740 5739 5739 5739 5739 5739 5739 5739 5739 5740 5740 5740
5759 5759 5758 5757 5755 5755 5757 5756 5755 5754 5753 5751 5750 5749 5747 5746 5745 5744 5742 5741 5740 5740 5738 5737 5736 5736 5735 5734 5733 5733 5732 5733 5732 5732 5732 5732 5732 5732 5732 5732 5732 5733 5733 5733
5752 5752 5752 5750 5749 5751 5749 5748 5747 5746 5744 5743 5742 5741 5740 5739 5737 5736 5735 5734 5733 5732 5731 5730 5729 5728 5727 5726 5726 5725 5725 5725 5724 5724 5724 5724 5724 5724 5725 5725 5725 5725 5725 5726
5745 5746 5744 5744 5744 5742 5741 5740 5739 5738 5736 5735 5735 5734 5733 5731 5730 5729 5728 5727 5726 5725 5723 5722 5721 5721 5720 5719 5718 5717 5717 5717 5716 5716 5716 5716 5716 5717 5717 5718 5718 5718 5718 5718
5738 5737 5736 5736 5735 5734 5733 5732 5731 5730 5728 5727 5727 5726 5725 5723 5722 5721 5720 5719 5718 5717 5716 5714 5714 5713 5712 5711 5710 5710 5709 5709 5708 5708 5708 5708 5709 5709 5710 5710 5710 5710 5710 5710
5730 5729 5728 5728 5728 5726 5725 5723 5723 5722 5721 5720 5719 5717 5716 5715 5714 5713 5712 5711 5710 5709 5707 5706 5705 5705 5704 5703 5702 5702 5701 5701 5700 5701 5701 5701 5701 5702 5702 5702 5702 5702 5702 5702
5722 5721 5720 5720 5719 5718 5717 5715 5715 5714 5713 5712 5710 5709 5708 5707 5706 5705 5704 5702 5701 5700 5699 5698 5697 5696 5696 5695 5694 5694 5693 5693 5693 5693 5693 5694 5694 5694 5694 5694 5694 5693 5693 5693